{"data":{"norad_id":59642,"epoch":"2026-09-19T21:50:42.273600Z","epoch_age_seconds":219206,"freshness":"STALE","line1":"1 59642U 24082M   26262.91021150  .00000158  00000+0  15284-4 0  9996","line2":"2 59642  43.0021  82.5783 0001320 269.7221  90.3479 15.27575402135173","mean_motion":15.27575402,"eccentricity":0.000132,"inclination_deg":43.0021,"raan_deg":82.5783,"arg_perigee_deg":269.7221,"mean_anomaly_deg":90.3479,"bstar":1.5284e-5,"rev_number":13517,"period_min":94.267032456444,"perigee_km":482.15718575824,"apogee_km":483.96854252238,"semimajor_km":6861.1998641403,"source":"CELESTRAK","updated_at":"2026-09-22T09:00:49.020760Z"}}